Regional Weather Roundup
Issued by NWS New Orleans/Baton Rouge, LA

Home | Current Version | Previous Version | Graphics & Text | Print | Product List | Glossary On
Versions: 1 2 3 4 5 6 7 8 9 10 11 12 13 14 15 16 17 18 19 20 21 22 23 24 25 26 27 28 29 30 31 32 33 34 35 36 37 38 39 40 41 42 43 44 45 46 47 48 49 50
530
ASUS44 KLIX 252201
RWRLIX
NEW ORLEANS REGIONAL WEATHER ROUNDUP
NATIONAL WEATHER SERVICE NEW ORLEANS LA
400 PM CST TUE NOV 25 2014

NOTE: "FAIR" INDICATES FEW OR NO CLOUDS BELOW 12,000 FEET WITH NO
      SIGNIFICANT WEATHER AND/OR OBSTRUCTIONS TO VISIBILITY.
      SKY/WX - SKY CONDITION AND SIGNIFICANT WEATHER.
      TMP - AIR TEMPERATURE.     DP    - DEWPOINT TEMPERATURE.
      RH  - RELATIVE HUMIDITY.   PRES  - PRESSURE.
      HI  - HEAT INDEX.          WCI   - WIND CHILL INDEX.

*  THESE STATIONS ARE NOT NWS OR FAA STATIONS AND ARE NOT UNDER
   NWS QUALITY CONTROL.

LAZ038-040-048-061>063-065>067-069-252300-
SOUTHEAST LOUISIANA

CITY           SKY/WX    TMP DP  RH WIND       PRES   REMARKS
N.O. AUDUBON     N/A     56  36  46 MISG        N/A
N.O. INTL ARPT CLOUDY    55  33  43 N9        30.15F
N.O. LAKEFRONT CLOUDY    56  33  42 N12       30.17R
N.O. DOWNTOWN* CLOUDY    55  30  38 N6        30.15F
SLIDELL        CLOUDY    53  33  46 N3        30.15S
BATON ROUGE    CLOUDY    53  27  36 N6        30.17S
BOOTHVILLE     CLOUDY    56  38  50 NW16G28   30.12R
BELLE CHASSE   CLOUDY    56  29  35 N8        30.14R
BOGALUSA*      NOT AVBL
NEW ROADS*     NOT AVBL
GONZALES*      NOT AVBL
HAMMOND*       NOT AVBL
HOUMA*         NOT AVBL
PORT FOURCHON* MOCLDY    55  32  41 N14G20    30.18F

$$

MSZ070-080>082-252300-
SOUTHERN MISSISSIPPI

CITY           SKY/WX    TMP DP  RH WIND       PRES   REMARKS
MCCOMB         CLOUDY    50  28  42 N10       30.17R
GULFPORT       CLOUDY    55  34  45 NW10      30.14R
BILOXI         CLOUDY    56  34  44 N8        30.13R
PASCAGOULA     CLOUDY    56  34  43 NW7       30.11S
STENNIS ARPT*  CLOUDY    54  34  47 N7        30.14R

$$

COASTAL OBSERVATIONS
LAKE AND NEARSHORE STATIONS

STATION/POSITION TIME  TEMP    WIND        PRES    WAVE
                       AIR SEA DIR/SP/G            HT/PER
                 (UTC) (F)     (DEG/KT/KT) (MB)    (FT/S)
PASCAGOULA       2100   58     330/ 10/ 14 1018.6
WAVELAND YACHT   2100   55     320/ 10/ 13 1019.4
GRAND ISLE       2100   57 62  350/ 15/ 18 1020.7
SOUTHWEST PASS   2100   59                 1019.4
NEW CANAL        2100   55 55  340/  6/ 11 1021.6
SHELL BEACH      2100   55 54  330/ 15/ 17 1020.9

OFFSHORE STATIONS

STATION/POSITION TIME  TEMP    WIND        PRES    WAVE
                       AIR SEA DIR/SP/G            HT/PER
                 (UTC) (F)     (DEG/KT/KT) (MB)    (FT/S)
64 S DAUPHIN ISL 2143   60 72  360/ 21/ 25 1017.9    5/ 7

$$




USA.gov is the U.S. government's official web portal to all federal, state and local government web resources and services.